User: anonymous   Login
Location: Unspecified
(0.0000°N, 0.0000°E)
Time: 03:07:50
(UTC+00:00)
Language:

BIROS - Orbit

View from above orbital plane
View from above orbital plane
View from above satellite
View from above satellite

Ground track
Ground track

The orbit data is extracted from the following two-line orbital elements,

1 41604U 16040F   21331.56378799  .00001373  00000-0  61178-4 0  9991
2 41604  97.2416  18.4109 0013471 121.8512 238.4038 15.22986337301722
Epoch (UTC): 27 November 2021 13:31:51
Eccentricity: 0.0013471
inclination: 97.2416°
perigee height: 487 km
apogee height: 506 km
right ascension of ascending node: 18.4109°
argument of perigee: 121.8512°
revolutions per day: 15.22986337
mean anomaly at epoch: 238.4038°
orbit number at epoch: 30172

The dashed part of the orbit path shows where the satellite is in the earth's shadow,  

DLR